This demonstration page uses our WeatherBlox Daily Observations layout. Learn more.

Left ArrowRight Arrow

Hourly Observations for May 4, 2021

Temp ( °F °C ) Dew Point ( °F °C ) Humidity (%) Winds ( mph kmh ) Pressure ( in mb ) Visibility ( mi km ) Precip ( " mm )
12:15 am 00:15 Partly Cloudy 61 16 61 16 100 100 SSW 3 6 29.7 1006 10 16.0934 0 0
12:35 am 00:35 Partly Cloudy 61 16 61 16 100 100 SSW 3 6 29.7 1006 10 16.0934 0 0
12:55 am 00:55 Partly Cloudy 61 16 61 16 100 100 SSW 5 7 29.7 1006 10 16.0934 0 0
1:15 am 01:15 Partly Cloudy 61 16 61 16 100 100 SW 3 6 29.71 1006 10 16.0934 0 0
1:35 am 01:35 Mostly Cloudy 59 15 59 15 100 100 SW 3 6 29.71 1006 10 16.0934 0 0
2:15 am 02:15 Mostly Cloudy 59 15 59 15 100 100 WSW 5 7 29.72 1006 10 16.0934 0 0
2:35 am 02:35 Cloudy with Rain 59 15 59 15 100 100 SW 3 6 29.72 1006 7 11.26538 0.01 0.254
2:55 am 02:55 Cloudy with Light Rain 59 15 59 15 100 100 SW 3 6 29.72 1006 10 16.0934 0.02 0.508
3:15 am 03:15 Cloudy 59 15 59 15 100 100 SW 3 6 29.72 1006 10 16.0934 0 0
3:35 am 03:35 Mostly Cloudy 59 15 59 15 100 100 WSW 3 6 29.72 1006 10 16.0934 0 0
3:55 am 03:55 Mostly Cloudy 59 15 59 15 100 100 W 5 7 29.73 1007 10 16.0934 0 0
4:15 am 04:15 Cloudy with Rain 59 15 59 15 100 100 W 6 9 29.73 1007 10 16.0934 0 0
4:35 am 04:35 Cloudy with Light Rain 59 15 59 15 100 100 W 5 7 29.73 1007 10 16.0934 0.01 0.254
4:55 am 04:55 Partly Cloudy 59 15 59 15 100 100 W 7 11 29.73 1007 10 16.0934 0.02 0.508
5:15 am 05:15 Clear 59 15 57 14 94 94 W 8 13 29.73 1007 10 16.0934 0 0
5:35 am 05:35 Clear 59 15 57 14 94 94 W 6 9 29.72 1006 10 16.0934 0 0
5:55 am 05:55 Clear 57 14 57 14 100 100 Calm 29.73 1007 10 16.0934 0 0
6:15 am 06:15 Sunny 55 13 55 13 100 100 SW 5 7 29.74 1007 10 16.0934 0 0
6:35 am 06:35 Sunny 55 13 55 13 100 100 WSW 5 7 29.75 1008 10 16.0934 0 0
6:55 am 06:55 Sunny 55 13 55 13 100 100 SSW 5 7 29.75 1008 10 16.0934 0 0
7:15 am 07:15 Sunny 57 14 57 14 100 100 WSW 3 6 29.77 1008 10 16.0934 0 0
7:35 am 07:35 Sunny 59 15 59 15 100 100 Calm 29.77 1008 10 16.0934 0 0
7:55 am 07:55 Sunny 61 16 59 15 94 94 WSW 3 6 29.76 1008 10 16.0934 0 0
8:15 am 08:15 Sunny 63 17 59 15 88 88 WSW 5 7 29.77 1008 10 16.0934 0 0
8:35 am 08:35 Sunny 64 18 59 15 83 83 SW 7 11 29.78 1009 10 16.0934 0 0
8:55 am 08:55 Partly Cloudy 64 18 61 16 88 88 SW 6 9 29.79 1009 10 16.0934 0 0
9:15 am 09:15 Partly Cloudy 66 19 61 16 83 83 SW 7 11 29.81 1010 10 16.0934 0 0
9:35 am 09:35 Sunny 68 20 61 16 78 78 WSW 6 9 29.8 1009 10 16.0934 0 0
9:55 am 09:55 Sunny 70 21 61 16 73 73 SSW 3 6 29.8 1009 10 16.0934 0 0
10:15 am 10:15 Partly Cloudy 70 21 61 16 73 73 S 6 9 29.78 1008 10 16.0934 0 0
10:35 am 10:35 Partly Cloudy 72 22 61 16 69 69 Calm 29.77 1008 10 16.0934 0 0
10:55 am 10:55 Sunny 73 23 61 16 65 65 SW 7 11 29.77 1008 10 16.0934 0 0
11:15 am 11:15 Partly Cloudy 73 23 61 16 65 65 W 8 13 29.77 1008 10 16.0934 0 0
11:35 am 11:35 Mostly Cloudy 75 24 61 16 61 61 WSW 10 17 29.79 1009 10 16.0934 0 0
11:55 am 11:55 Partly Cloudy 77 25 61 16 57 57 WSW 8 13 29.78 1009 10 16.0934 0 0
12:15 pm 12:15 Partly Cloudy 77 25 61 16 57 57 WSW 9 15 29.78 1009 10 16.0934 0 0
12:35 pm 12:35 Mostly Cloudy 77 25 61 16 57 57 S 6 9 29.77 1008 10 16.0934 0 0
12:55 pm 12:55 Partly Cloudy 79 26 63 17 58 58 SW 3 6 29.75 1008 10 16.0934 0 0
1:15 pm 13:15 Partly Cloudy 79 26 63 17 58 58 SW 5 7 29.75 1008 10 16.0934 0 0
1:35 pm 13:35 Partly Cloudy 79 26 63 17 58 58 SSW 5 7 29.76 1008 10 16.0934 0 0
1:55 pm 13:55 Sunny 79 26 63 17 58 58 WSW 8 13 29.76 1008 10 16.0934 0 0
2:15 pm 14:15 Sunny 79 26 63 17 58 58 WSW 5 7 29.75 1008 10 16.0934 0 0
2:35 pm 14:35 Sunny 81 27 63 17 54 54 SSE 8 13 29.74 1007 10 16.0934 0 0
2:55 pm 14:55 Partly Cloudy 79 26 63 17 58 58 S 6 9 29.73 1007 10 16.0934 0 0
3:15 pm 15:15 Partly Cloudy 79 26 64 18 61 61 SW 5 7 29.73 1007 10 16.0934 0 0
3:35 pm 15:35 Mostly Cloudy 79 26 63 17 58 58 SW 5 7 29.74 1007 10 16.0934 0 0
3:55 pm 15:55 Mostly Cloudy with Light Rain 79 26 64 18 61 61 WSW 5 7 29.73 1007 10 16.0934 0 0
4:15 pm 16:15 Cloudy with Nearby Thunderstorms 73 23 68 20 83 83 SSW 5 7 29.72 1006 7 11.26538 0.02 0.508
4:35 pm 16:35 Cloudy with Light Rain 68 20 63 17 83 83 WSW 10 17 29.75 1008 7 11.26538 0.03 0.762
4:55 pm 16:55 Cloudy with Rain 64 18 63 17 94 94 SW 8 13 29.75 1008 5 8.0467 0.08 2.032
5:15 pm 17:15 Cloudy with Light Rain 63 17 63 17 100 100 SW 5 7 29.75 1007 10 16.0934 0.03 0.762
5:35 pm 17:35 Cloudy with Light Rain 63 17 63 17 100 100 SSW 7 11 29.74 1007 10 16.0934 0.04 1.016
5:55 pm 17:55 Partly Cloudy 63 17 63 17 100 100 SSE 6 9 29.7 1006 10 16.0934 0.04 1.016
6:15 pm 18:15 Sunny 64 18 63 17 94 94 S 5 7 29.68 1005 10 16.0934 0 0
6:35 pm 18:35 Sunny 63 17 63 17 100 100 S 6 9 29.7 1006 10 16.0934 0 0
6:55 pm 18:55 Sunny 64 18 63 17 94 94 SW 5 7 29.69 1006 10 16.0934 0 0
7:15 pm 19:15 Partly Cloudy 63 17 63 17 100 100 SSW 3 6 29.72 1006 10 16.0934 0 0
7:35 pm 19:35 Partly Cloudy 63 17 61 16 94 94 Calm 29.72 1006 10 16.0934 0 0
7:55 pm 19:55 Sunny 61 16 61 16 100 100 S 3 6 29.72 1006 10 16.0934 0 0
8:15 pm 20:15 Clear 61 16 61 16 100 100 SSW 5 7 29.72 1006 10 16.0934 0 0
8:35 pm 20:35 Clear 61 16 61 16 100 100 S 6 9 29.73 1007 10 16.0934 0 0
8:55 pm 20:55 Partly Cloudy 61 16 61 16 100 100 S 9 15 29.74 1007 10 16.0934 0 0
9:15 pm 21:15 Cloudy 61 16 61 16 100 100 S 10 17 29.76 1008 10 16.0934 0 0
9:35 pm 21:35 Cloudy 61 16 61 16 100 100 S 7 11 29.76 1008 10 16.0934 0 0
9:55 pm 21:55 Mostly Cloudy 61 16 61 16 100 100 S 6 9 29.75 1007 10 16.0934 0 0
10:15 pm 22:15 Mostly Cloudy 59 15 59 15 100 100 S 5 7 29.74 1007 10 16.0934 0 0
10:35 pm 22:35 Cloudy 59 15 59 15 100 100 SSW 3 6 29.74 1007 10 16.0934 0 0
10:55 pm 22:55 Cloudy 59 15 59 15 100 100 SSW 3 6 29.74 1007 10 16.0934 0 0
11:15 pm 23:15 Cloudy 59 15 59 15 100 100 SSW 6 9 29.75 1007 10 16.0934 0 0
11:35 pm 23:35 Cloudy 59 15 59 15 100 100 SW 5 7 29.75 1007 10 16.0934 0 0
11:55 pm 23:55 Cloudy 59 15 59 15 100 100 SSW 5 7 29.74 1007 10 16.0934 0 0

Powered by AerisWeather